FW5656 Weather Reports


time (UTC)temp
F
wind
direction
speed
knots
gust
knots
rain 1hr
in
rain 24hr
in
rain mn
in
humidity
%
barometer
mb
20260905224609 89 32 4.3 8.7 0.00 0.00 0.00 75 1010.6
20260905223044 91 15 4.3 8.7 0.00 0.00 0.00 72 1010.6
20260905221539 91 42 3.5 7.8 0.00 0.00 0.00 70 1010.6
20260905220038 92 27 5.2 8.7 0.00 0.00 0.00 68 1010.6
20260905214544 92 344 3.5 8.7 0.00 0.00 0.00 66 1010.6
20260905213038 93 358 2.6 6.1 0.00 0.00 0.00 66 1010.6
20260905211544 93 4 2.6 7.8 0.00 0.00 0.00 66 1010.5
20260905210042 93 340 4.3 8.7 0.00 0.00 0.00 64 1010.6
20260905204532 92 48 5.2 9.6 0.00 0.00 0.00 67 1010.9
20260905203032 92 32 4.3 9.6 0.00 0.00 0.00 68 1010.9
20260905201531 95 8 4.3 9.6 0.00 0.00 0.00 62 1011.0
20260905200030 95 8 5.2 7.8 0.00 0.00 0.00 61 1011.1
20260905194528 94 345 5.2 7.8 0.00 0.00 0.00 61 1011.0
20260905193027 93 1 2.6 9.6 0.00 0.00 0.00 63 1011.3
20260905191526 93 342 4.3 10.4 0.00 0.00 0.00 62 1011.4
20260905190025 93 326 2.6 9.6 0.00 0.00 0.00 63 1011.4
20260905184529 94 352 3.5 7.8 0.00 0.00 0.00 62 1011.5
20260905183122 94 355 3.5 10.4 0.00 0.00 0.00 62 1011.8
20260905181519 94 298 5.2 8.7 0.00 0.00 0.00 60 1011.9
20260905180018 94 353 3.5 7.8 0.00 0.00 0.00 62 1011.9
20260905174519 94 335 3.5 6.1 0.00 0.00 0.00 60 1012.1
20260905173016 94 49 4.3 8.7 0.00 0.00 0.00 59 1012.1
20260905171514 94 356 3.5 6.1 0.00 0.00 0.00 62 1012.3
20260905170012 93 320 3.5 7.8 0.00 0.00 0.00 62 1012.3
20260905164515 93 324 3.5 6.1 0.00 0.00 0.00 65 1012.3
20260905163010 93 303 2.6 4.3 0.00 0.00 0.00 65 1012.5
20260905161509 93 304 2.6 6.1 0.00 0.00 0.00 66 1012.6
20260905160005 92 336 2.6 5.2 0.00 0.00 0.00 67 1012.6
20260905154503 92 319 2.6 3.5 0.00 0.00 0.00 67 1012.7
20260905153101 91 302 2.6 5.2 0.00 0.00 0.00 69 1012.5
20260905153001 91 298 2.6 5.2 0.00 0.00 0.00 69 1012.4
20260905151558 90 269 2.6 5.2 0.00 0.00 0.00 71 1012.4
20260905150100 89 285 0.9 4.3 0.00 0.00 0.00 72 1012.5
20260905144552 88 279 0.9 3.5 0.00 0.00 0.00 75 1012.5
20260905143048 87 264 1.7 3.5 0.00 0.00 0.00 76 1012.7
20260905141545 86 254 1.7 3.5 0.00 0.00 0.00 77 1012.7
20260905140041 85 257 1.7 3.5 0.00 0.00 0.00 78 1012.6
20260905134537 84 273 1.7 3.5 0.00 0.00 0.00 79 1012.6
20260905133037 83 271 0.9 3.5 0.00 0.00 0.00 82 1012.6
20260905131530 81 233 0.9 2.6 0.00 0.00 0.00 84 1012.6
20260905130029 80 218 0.9 2.6 0.00 0.00 0.00 86 1012.6
20260905124526 79 224 0.0 0.9 0.00 0.00 0.00 86 1012.5
20260905123024 79 152 0.0 0.0 0.00 0.00 0.00 91 1012.5
20260905121519 75 152 0.0 0.0 0.00 0.00 0.00 96 1012.4
20260905120018 73 146 0.0 0.9 0.00 0.00 0.00 98 1012.2
20260905114516 72 227 0.0 0.0 0.00 0.00 0.00 98 1012.3
20260905113016 71 227 0.0 0.0 0.00 0.00 0.00 98 1012.3
20260905111519 71 227 0.0 0.0 0.00 0.00 0.00 98 1012.3
20260905110018 71 227 0.0 0.0 0.00 0.00 0.00 98 1012.3
20260905104513 71 227 0.0 0.0 0.00 0.00 0.00 98 1012.3
20260905103015 71 227 0.0 0.0 0.00 0.00 0.00 97 1012.4
20260905101513 71 227 0.0 0.9 0.00 0.00 0.00 98 1012.3
20260905100016 71 211 0.0 0.0 0.00 0.00 0.00 97 1012.1
20260905094510 71 211 0.0 0.0 0.00 0.00 0.00 96 1012.0
20260905093008 72 211 0.0 0.0 0.00 0.00 0.00 96 1012.0
20260905091510 72 211 0.0 0.0 0.00 0.00 0.00 96 1011.9
20260905090008 73 211 0.0 0.0 0.00 0.00 0.00 95 1011.8
20260905084504 73 211 0.0 0.9 0.00 0.00 0.00 95 1011.8
20260905083003 73 158 0.0 0.9 0.00 0.00 0.00 95 1011.9
20260905081502 73 219 0.0 0.0 0.00 0.00 0.00 95 1012.0
20260905080001 73 219 0.0 0.0 0.00 0.00 0.00 95 1012.0
20260905074559 73 219 0.0 0.0 0.00 0.00 0.00 95 1012.1
20260905073059 73 219 0.0 0.0 0.00 0.00 0.00 95 1012.2
20260905071557 74 219 0.0 0.0 0.00 0.00 0.00 95 1012.2
20260905070058 73 226 0.0 0.9 0.00 0.00 0.00 96 1012.2
20260905064612 73 226 0.0 0.0 0.00 0.00 0.00 96 1012.3
20260905063055 73 226 0.0 0.9 0.00 0.00 0.00 96 1012.2
20260905061603 73 226 0.0 0.0 0.00 0.00 0.00 95 1012.4
20260905060053 73 226 0.0 0.0 0.00 0.00 0.00 95 1012.3
20260905054647 74 226 0.0 0.9 0.00 0.00 0.00 94 1012.2
20260905053051 74 228 0.0 0.0 0.00 0.00 0.00 95 1012.4
20260905051550 74 219 0.0 0.9 0.00 0.00 0.00 95 1012.3
20260905050048 74 153 0.0 0.0 0.00 0.00 0.00 94 1012.5
20260905044555 75 153 0.0 0.0 0.00 0.00 0.00 94 1012.4
20260905043047 75 153 0.0 0.0 0.00 0.00 0.00 94 1012.6
20260905041546 75 153 0.0 0.0 0.00 0.00 0.00 94 1012.6
20260905040052 75 153 0.0 0.0 0.00 0.00 0.00 93 1012.7
20260905034550 75 153 0.0 0.0 0.00 0.00 0.00 94 1012.6
20260905033044 76 152 0.0 0.0 0.00 0.00 0.00 92 1012.5
20260905031548 76 152 0.0 0.9 0.00 0.00 0.00 92 1012.7
20260905030045 77 184 0.0 0.0 0.00 0.00 0.00 91 1012.5
20260905024555 77 184 0.0 0.0 0.00 0.00 0.00 90 1012.4
20260905023043 79 217 0.0 0.0 0.00 0.00 0.00 87 1012.3
20260905021542 79 237 0.0 1.7 0.00 0.00 0.00 88 1012.2
20260905020051 78 303 0.0 0.0 0.00 0.00 0.00 90 1012.1
20260905014540 79 303 0.0 0.0 0.00 0.00 0.00 89 1012.0
20260905013040 79 303 0.0 0.0 0.00 0.00 0.00 88 1011.8
20260905011540 81 303 0.0 0.0 0.00 0.00 0.00 86 1011.7
20260905010043 82 293 0.0 0.9 0.00 0.00 0.00 84 1011.4
20260905004541 84 217 0.0 0.0 0.00 0.00 0.00 80 1011.2
20260905003040 87 217 0.0 0.9 0.00 0.00 0.00 77 1011.3
20260905001539 91 217 0.0 0.0 0.00 0.00 0.00 70 1011.3
20260905000037 94 217 0.0 0.0 0.00 0.00 0.00 68 1011.4
20260904234537 96 217 0.0 0.9 0.00 0.00 0.00 64 1011.4
20260904233036 96 217 0.0 0.9 0.00 0.00 0.00 63 1011.3
20260904231550 95 224 0.0 2.6 0.00 0.00 0.00 59 1011.2
20260904230036 96 202 1.7 4.3 0.00 0.00 0.00 57 1011.1